Flag for Canada Weather past 2 weeks in Saint-Georges, Quebec, Canada

Now
64 °F

Mild.


Feels Like: 64 °F
Forecast: 65 / 84 °F
Wind: 2 mph from South

Location: Beauceville

Current Time: Jul 30, 2015 at 2:09:04 AM

Latest Report: Jul 30, 2015 at 1:00 AM


Visibility: N/A

Pressure: 29.87 "Hg

Humidity: 91%

Dew point: 61 °F

Location of Saint-GeorgesLocation

Historic Weather in Saint-Georges — Graph

°F

Saint-Georges temperature yesterday

Maximum temperature yesterday: 84 °F (at 4:00 PM)
Minimum temperature yesterday: 60 °F (at 5:00 AM)
Average temperature yesterday: 72 °F

Past Weeks' High & Low Weather Summary

 TemperatureHumidityPressure
High84 °F (Jul 29, 4:00 PM)100% (Jul 15, 4:00 AM)30.14 "Hg (Jul 15, 4:00 AM)
Low43 °F (Jul 16, 4:00 AM)31% (Jul 17, 12:00 PM)29.52 "Hg (Jul 21, 2:00 PM)
Average64 °F80%29.86 "Hg
* Reported Jul 15 1:00 AM — Jul 30 1:00 AM, Saint-Georges, Weather by CustomWeather, © 2015

Note: Actual official high and low records may vary slightly from our data, if they occured in-between our weather recording intervals... More about our weather records

Advertising

Saint-Georges weather history for previous 24 hours

 ConditionsComfort  
Time TempWeatherWind HumidityBarometerVisibility
1:00 AM
Thu, Jul 30
64 °FMild.2 mph91%29.87 "HgN/A
12:00 AM67 °FMild.2 mph85%29.88 "HgN/A
11:00 PM
Wed, Jul 29
70 °FMild.2 mph78%29.88 "HgN/A
10:00 PM68 °FMild.2 mph82%29.88 "HgN/A
9:00 PM71 °FMild.5 mph75%29.88 "HgN/A
8:00 PM74 °FMild.5 mph71%29.87 "HgN/A
7:00 PM81 °FWarm.2 mph53%29.86 "HgN/A
6:00 PM83 °FWarm.2 mph44%29.86 "HgN/A
5:00 PM84 °FWarm.5 mph44%29.87 "HgN/A
4:00 PM84 °FWarm.5 mph40%29.88 "HgN/A
3:00 PM84 °FPleasantly warm.5 mph39%29.89 "HgN/A
2:00 PM83 °FWarm.5 mph45%29.90 "HgN/A
1:00 PM82 °FWarm.2 mph43%29.91 "HgN/A
12:00 PM81 °FWarm.5 mph50%29.93 "HgN/A
11:00 AM79 °FWarm.3 mph56%29.94 "HgN/A
10:00 AM76 °FMild.1 mph76%29.94 "HgN/A
9:00 AM70 °FMild.2 mph79%29.95 "HgN/A
8:00 AM65 °FMild.3 mph87%29.96 "HgN/A
7:00 AM62 °FCool.5 mph95%29.96 "HgN/A
6:00 AM60 °FCool.2 mph97%29.96 "HgN/A
5:00 AM60 °FCool.3 mph97%29.95 "HgN/A
4:00 AM61 °FCool.1 mph97%29.93 "HgN/A
3:00 AM62 °FCool.2 mph98%29.93 "HgN/A
2:00 AM64 °FMild.2 mph90%29.94 "HgN/A
Weather by CustomWeather, © 2015

See weather overviewHow to use our weather pages